Flag for Germany Weather past 2 weeks in Ravensburg, Baden-Württemberg, Germany

Now
68 °F

Passing clouds.


Feels Like: 68 °F
Forecast: 46 / 73 °F
Wind: 10 mph from West

Location: Friedrichshafen Airport

Current Time: May 30, 2015 at 4:58:32 PM

Latest Report: May 30, 2015 at 4:20 PM


Visibility: N/A

Pressure: 30.01 "Hg

Humidity: 46%

Dew point: 46 °F

Location of RavensburgLocation

Historic Weather in Ravensburg — Graph

°F

Ravensburg temperature yesterday

Maximum temperature yesterday: 75 °F (at 4:50 PM)
Minimum temperature yesterday: 46 °F (at 5:50 AM)
Average temperature yesterday: 63 °F

Past Weeks' High & Low Weather Summary

 TemperatureHumidityPressure
High75 °F (May 29, 4:50 PM)93% (May 21, 10:50 PM)30.33 "Hg (May 21, 10:50 PM)
Low41 °F (May 27, 6:20 AM)25% (May 28, 5:20 PM)29.77 "Hg (May 18, 5:50 PM)
Average55 °F68%30.07 "Hg
* Reported May 15 3:20 PM — May 30 3:20 PM, Ravensburg, Weather by CustomWeather, © 2015

Note: Actual official high and low records may vary slightly from our data, if they occured in-between our weather recording intervals... More about our weather records

Advertising

Ravensburg weather history for previous 24 hours

 ConditionsComfort  
Time TempWeatherWind HumidityBarometerVisibility
3:20 PM
Sat, May 30
68 °FSunny.10 mph46%30.01 "Hg10 mi
2:50 PM66 °FSunny.10 mph46%30.01 "Hg10 mi
2:20 PM66 °FSunny.9 mph49%30.01 "Hg10 mi
1:50 PM66 °FPartly sunny.10 mph49%30.01 "HgN/A
1:20 PM64 °FPartly sunny.8 mph52%30.04 "HgN/A
12:50 PM63 °FPartly sunny.7 mph52%30.04 "HgN/A
12:20 PM63 °FBroken clouds.7 mph56%30.04 "HgN/A
11:50 AM61 °FOvercast.6 mph59%30.01 "HgN/A
11:20 AM61 °FOvercast.7 mph55%30.01 "HgN/A
10:50 AM61 °FOvercast.9 mph59%30.01 "HgN/A
10:20 AM61 °FPartly sunny.10 mph59%30.01 "HgN/A
9:50 AM61 °FPartly sunny.13 mph55%30.01 "HgN/A
9:20 AM63 °FScattered clouds.13 mph56%30.01 "HgN/A
8:50 AM61 °FSunny.12 mph63%30.01 "Hg10 mi
8:20 AM61 °FSunny.12 mph59%29.98 "Hg10 mi
7:50 AM59 °FScattered clouds.9 mph68%29.98 "HgN/A
7:20 AM59 °FBroken clouds.8 mph68%29.98 "HgN/A
6:50 AM57 °FSunny.8 mph67%29.98 "Hg10 mi
6:20 AM57 °FClear.8 mph72%29.98 "Hg10 mi
5:50 AM57 °FClear.7 mph72%29.98 "Hg10 mi
5:20 AM57 °FOvercast.9 mph72%29.98 "HgN/A
4:50 AM57 °FPassing clouds.8 mph72%29.98 "HgN/A
4:20 AM57 °FOvercast.8 mph72%29.95 "HgN/A
3:50 AM57 °FOvercast.8 mph77%29.98 "HgN/A
3:20 AM57 °FMostly cloudy.6 mph77%29.98 "HgN/A
2:50 AM57 °FOvercast.6 mph77%29.95 "HgN/A
2:20 AM55 °FSprinkles. Overcast.5 mph88%29.95 "HgN/A
1:50 AM55 °FSprinkles. Partly cloudy.5 mph82%29.92 "HgN/A
1:20 AM59 °FPassing clouds.3 mph68%29.92 "HgN/A
12:50 AM59 °FPassing clouds.3 mph63%29.92 "HgN/A
12:20 AM61 °FPassing clouds.5 mph59%29.92 "HgN/A
11:50 PM
Fri, May 29
59 °FPassing clouds.2 mph55%29.92 "HgN/A
11:20 PM63 °FClear.3 mph45%29.89 "Hg10 mi
10:50 PM64 °FPassing clouds.5 mph43%29.89 "HgN/A
10:20 PM64 °FClear.3 mph43%29.89 "Hg10 mi
9:50 PM66 °FSunny.2 mph37%29.89 "Hg10 mi
9:20 PM68 °FSunny.6 mph33%29.86 "Hg10 mi
8:50 PM70 °FSunny.6 mph33%29.86 "Hg10 mi
8:20 PM72 °FSunny.7 mph36%29.86 "Hg10 mi
7:50 PM72 °FSunny.8 mph36%29.83 "Hg10 mi
7:20 PM73 °FSunny.8 mph33%29.83 "Hg10 mi
6:50 PM73 °FSunny.7 mph31%29.83 "Hg10 mi
6:20 PM73 °FSunny.8 mph31%29.83 "Hg10 mi
5:50 PM75 °FSunny.8 mph27%29.83 "Hg10 mi
5:20 PM75 °FPassing clouds.7 mph27%29.83 "HgN/A
4:50 PM75 °FPassing clouds.10 mph29%29.83 "HgN/A
4:20 PM73 °FSunny.10 mph31%29.86 "Hg10 mi
Weather by CustomWeather, © 2015

See weather overviewHow to use our weather pages